Flag for Iran Weather past 2 weeks in Mashhad, Iran

Now
88 °F

Sunny.


Feels Like: 84 °F
Forecast: 68 / 94 °F
Wind: 14 mph from Northeast

Location: Mashhad Airport

Current Time: Aug 21, 2014 at 7:37:39 PM

Latest Report: Aug 21, 2014 at 7:00 PM


Visibility: 10 mi

Pressure: 29.86 "Hg

Humidity: 10%

Dew point: 25 °F

Location of MashhadLocation

Historic Weather in Mashhad — Graph

°F

Mashhad temperature yesterday

Maximum temperature yesterday: 97 °F (at 2:00 PM)
Minimum temperature yesterday: 68 °F (at 5:00 AM)
Average temperature yesterday: 84 °F

Past Weeks' High & Low Weather Summary

 TemperatureHumidityPressure
High100 °F (Aug 7, 3:30 PM)47% (Aug 15, 5:00 AM)30.07 "Hg (Aug 15, 5:00 AM)
Low64 °F (Aug 16, 4:55 AM)5% (Aug 7, 2:00 PM)29.74 "Hg (Aug 6, 6:30 PM)
Average83 °F18%29.94 "Hg
* Reported Aug 6 6:30 PM — Aug 21 6:30 PM, Mashhad, Weather by CustomWeather, © 2014

Note: Actual official high and low records may vary slightly from our data, if they occured in-between our weather recording intervals... More about our weather records

Advertising

Mashhad weather history for previous 24 hours

 ConditionsComfort  
Time TempWeatherWind HumidityBarometerVisibility
6:30 PM
Aug 21
90 °FSunny.16 mph10%29.86 "Hg10 mi
6:00 PM91 °FSunny.14 mph9%29.86 "Hg10 mi
5:30 PM95 °FSunny.16 mph8%29.86 "Hg10 mi
5:00 PM95 °FSunny.9 mph7%29.86 "Hg10 mi
4:30 PM95 °FSunny.5 mph7%29.86 "Hg10 mi
4:00 PM95 °FSunny.5 mph6%29.86 "Hg10 mi
3:30 PM95 °FSunny.5 mph7%29.89 "Hg10 mi
3:00 PM95 °FSunny.5 mph7%29.89 "Hg10 mi
2:30 PM93 °FSunny.7 mph7%29.89 "Hg10 mi
2:00 PM95 °FSunny.12 mph7%29.89 "Hg10 mi
1:30 PM91 °FSunny.5 mph8%29.92 "Hg10 mi
12:59 PM93 °FSunny.9 mph7%29.92 "Hg10 mi
12:30 PM91 °FSunny.7 mph8%29.95 "Hg10 mi
12:00 PM91 °FSunny.5 mph8%29.95 "Hg10 mi
11:30 AM90 °FSunny.No wind8%29.95 "Hg10 mi
11:00 AM90 °FSunny.No wind9%29.98 "Hg10 mi
10:30 AM88 °FSunny.7 mph10%29.98 "Hg10 mi
9:58 AM88 °FSunny.12 mph10%29.98 "Hg10 mi
9:30 AM84 °FSunny.5 mph14%29.98 "Hg10 mi
9:00 AM82 °FSunny.No wind15%29.98 "Hg10 mi
8:30 AM81 °FSunny.5 mph17%29.98 "Hg10 mi
8:00 AM79 °FSunny.5 mph17%29.98 "Hg10 mi
7:30 AM73 °FSunny.5 mph20%29.98 "Hg10 mi
7:00 AM72 °FClear.5 mph23%29.98 "Hg10 mi
6:30 AM68 °FClear.5 mph28%29.98 "Hg10 mi
6:00 AM66 °FClear.5 mph32%29.95 "Hg10 mi
5:30 AM66 °FClear.No wind30%29.95 "Hg10 mi
4:55 AM68 °FClear.No wind28%29.95 "Hg10 mi
4:20 AM72 °FClear.5 mph23%29.95 "Hg10 mi
4:00 AM70 °FClear.5 mph27%29.95 "Hg10 mi
3:30 AM70 °FClear.5 mph27%29.95 "Hg10 mi
2:55 AM70 °FClear.No wind27%29.95 "Hg10 mi
2:30 AM73 °FClear.No wind19%29.95 "Hg10 mi
2:00 AM73 °FClear.5 mph22%29.95 "Hg10 mi
1:30 AM75 °FClear.5 mph18%29.95 "Hg10 mi
12:55 AM77 °FClear.5 mph17%29.95 "Hg10 mi
12:20 AM75 °FClear.5 mph18%29.98 "Hg10 mi
12:00 AM77 °FClear.5 mph17%29.98 "Hg10 mi
11:30 PM
Aug 20
79 °FClear.7 mph15%29.98 "Hg10 mi
11:00 PM79 °FClear.7 mph15%29.98 "Hg10 mi
10:30 PM81 °FClear.9 mph13%30.01 "Hg10 mi
9:55 PM81 °FClear.5 mph12%30.01 "Hg10 mi
9:30 PM82 °FClear.7 mph12%30.01 "Hg10 mi
9:00 PM82 °FClear.9 mph11%30.01 "Hg10 mi
8:30 PM84 °FSunny.7 mph10%29.98 "Hg10 mi
8:00 PM84 °FSunny.7 mph10%29.98 "Hg10 mi
7:30 PM86 °FSunny.12 mph10%29.95 "Hg10 mi
7:00 PM88 °FSunny.16 mph10%29.95 "Hg10 mi
Weather by CustomWeather, © 2014

See weather overviewHow to use our weather pages